Voltar ao catálogo

FREGAT DEB

LostUNKNOWN
NORAD 45810·DEBRIS·🇷🇺 Russia

Lançado Jul 18, 2011 de Baikonur Cosmodrome

Loading…

Próximas Passagens (próximas 24 horas)

TLE

ObsoletoSource: Space-Track

Época: Jan 16, 2022, 07:14 UTC

1 45810U 11037AU  22016.30173495  .00017893  00000-0  64513-1 0  9991
2 45810  51.3155 356.1298 1313242  61.5114 311.1631 11.34823803 66919

Acompanhe FREGAT DEB em tempo real com AllMySat

Download on the App Store